This demonstration page uses our WeatherBlox Daily Observations layout. Learn more.

Left ArrowRight Arrow

Hourly Observations for May 2, 2018

Temp ( °F °C ) Dew Point ( °F °C ) Humidity (%) Winds ( mph kmh ) Pressure ( in mb ) Visibility ( mi km ) Precip ( " mm )
12:15 am 00:15 Partly Cloudy 54 12.2 50 10 87 87 NNE 15 24 29.80 1009 10 16 N/A
12:35 am 00:35 Partly Cloudy 53 11.6 49 9.5 87 87 NNE 13 20 29.80 1009 10 16 N/A
12:55 am 00:55 Partly Cloudy 52 11.2 49 9.5 89 89 NNE 9 15 29.80 1009 10 16 N/A
1:15 am 01:15 Clear 52 10.9 49 9.2 89 89 NNE 10 17 29.80 1009 10 16 N/A
1:35 am 01:35 Partly Cloudy 51 10.8 48 9.1 89 89 NNE 12 19 29.80 1009 10 16 N/A
1:55 am 01:55 Mostly Cloudy 51 10.5 48 9.1 91 91 N 10 17 29.83 1010 10 16 N/A
2:15 am 02:15 Partly Cloudy 50 10.1 48 9 93 93 N 10 17 29.83 1010 10 16 N/A
2:35 am 02:35 Mostly Cloudy 50 10 49 9.2 95 95 N 9 15 29.83 1010 10 16 N/A
2:55 am 02:55 Cloudy 51 10.3 49 9.2 93 93 N 10 17 29.83 1010 10 16 N/A
3:15 am 03:15 Cloudy 51 10.5 49 9.3 92 92 NNE 9 15 29.85 1011 10 16 N/A
3:35 am 03:35 Cloudy 51 10.8 48 9.1 89 89 NNE 12 19 29.85 1011 10 16 N/A
3:55 am 03:55 Cloudy 52 11 49 9.2 89 89 NNE 9 15 29.85 1011 10 16 N/A
4:15 am 04:15 Cloudy 51 10.8 48 9 89 89 N 13 20 29.85 1011 10 16 N/A
4:35 am 04:35 Cloudy 51 10.7 48 8.8 88 88 N 10 17 29.85 1011 10 16 N/A
4:55 am 04:55 Cloudy 51 10.3 47 8.4 88 88 NNE 13 20 29.85 1011 10 16 N/A
5:15 am 05:15 Cloudy 50 10 47 8.1 88 88 NNE 13 20 29.85 1011 10 16 N/A
5:35 am 05:35 Partly Cloudy 49 9.3 46 7.8 90 90 NNE 10 17 29.85 1011 10 16 N/A
5:55 am 05:55 Clear 48 9 46 7.7 92 92 N 12 19 29.85 1011 10 16 N/A
6:15 am 06:15 Clear 48 8.8 46 7.7 93 93 NNE 10 17 29.85 1011 10 16 N/A
6:35 am 06:35 Sunny 48 8.8 46 7.8 94 94 NNE 9 15 29.88 1012 10 16 N/A
6:55 am 06:55 Sunny 48 8.8 46 7.8 94 94 NNE 9 15 29.88 1012 10 16 N/A
7:15 am 07:15 Sunny 48 9 46 8 94 94 NNE 10 17 29.88 1012 10 16 N/A
7:35 am 07:35 Sunny 48 9.1 46 8 93 93 NNE 8 13 29.91 1013 10 16 N/A
7:55 am 07:55 Sunny 49 9.3 47 8.2 93 93 NNE 13 20 29.88 1012 10 16 N/A
8:15 am 08:15 Sunny 49 9.5 47 8.5 94 94 NNE 12 19 29.91 1013 10 16 N/A
8:35 am 08:35 Sunny 50 10.1 48 8.8 92 92 NNE 14 22 29.91 1013 10 16 N/A
8:55 am 08:55 Sunny 51 10.8 48 9 89 89 NNE 15 24 29.91 1013 10 16 N/A
9:15 am 09:15 Sunny 51 10.8 48 8.9 88 88 NNE 18 30 29.91 1013 10 16 N/A
9:35 am 09:35 Sunny 52 11.1 48 9.1 88 88 NNE 13 20 29.94 1014 10 16 N/A
9:55 am 09:55 Partly Cloudy 53 11.8 49 9.4 85 85 NE 23 37 29.85 1011 10 16 N/A
10:15 am 10:15 Sunny 55 12.8 49 9.7 82 82 NE 25 41 29.83 1010 10 16 N/A
10:35 am 10:35 Partly Cloudy 57 14 50 10 77 77 ENE 20 31 29.88 1012 10 16 N/A
10:55 am 10:55 Mostly Cloudy 56 13.5 49 9.5 77 77 ENE 16 26 29.88 1012 10 16 N/A
11:15 am 11:15 Cloudy 57 13.8 49 9.6 76 76 ENE 16 26 29.88 1012 10 16 N/A
11:35 am 11:35 Cloudy 57 13.7 49 9.5 76 76 ENE 15 24 29.88 1012 10 16 N/A
11:55 am 11:55 Cloudy 57 13.8 49 9.5 75 75 NE 9 15 29.91 1013 10 16 N/A
12:15 pm 12:15 Cloudy 57 13.7 50 9.9 78 78 NE 15 24 29.88 1012 10 16 N/A
12:35 pm 12:35 Cloudy 56 13.5 50 10 80 80 NNE 13 20 29.91 1013 10 16 N/A
12:55 pm 12:55 Cloudy 56 13.6 49 9.6 77 77 NE 15 24 29.88 1012 10 16 N/A
1:15 pm 13:15 Cloudy 57 13.9 49 9.5 75 75 NNE 14 22 29.88 1012 10 16 N/A
1:35 pm 13:35 Cloudy 58 14.3 49 9.3 72 72 NNE 15 24 29.88 1012 10 16 N/A
1:55 pm 13:55 Cloudy 58 14.2 49 9.5 74 74 NNE 17 28 29.88 1012 10 16 N/A
2:15 pm 14:15 Cloudy 58 14.2 49 9.2 72 72 NE 13 20 29.88 1012 10 16 N/A
2:35 pm 14:35 Cloudy 58 14.5 49 9.2 71 71 NE 16 26 29.88 1012 10 16 N/A
2:55 pm 14:55 Cloudy 58 14.6 49 9.2 70 70 NE 18 30 29.85 1011 10 16 N/A
3:15 pm 15:15 Cloudy 59 14.9 48 9.1 68 68 ENE 18 30 29.83 1010 10 16 N/A
3:35 pm 15:35 Cloudy 58 14.5 48 8.8 69 69 NE 16 26 29.85 1011 10 16 N/A
3:55 pm 15:55 Cloudy 59 15 49 9.2 68 68 ENE 20 31 29.80 1009 10 16 N/A
4:15 pm 16:15 Cloudy 59 15.1 49 9.2 68 68 ENE 21 33 29.80 1009 10 16 N/A
4:35 pm 16:35 Cloudy 60 15.5 48 9 65 65 ENE 18 30 29.80 1009 10 16 N/A
4:55 pm 16:55 Cloudy 59 14.9 49 9.2 69 69 E 21 33 29.83 1010 10 16 N/A
5:15 pm 17:15 Cloudy 58 14.3 49 9.7 74 74 E 18 30 29.83 1010 10 16 N/A
5:35 pm 17:35 Cloudy 58 14.3 49 9.6 74 74 ENE 18 30 29.83 1010 10 16 N/A
5:55 pm 17:55 Cloudy 58 14.5 49 9.4 72 72 ENE 21 33 29.77 1008 10 16 N/A
6:15 pm 18:15 Cloudy 58 14.3 48 9.1 71 71 E 20 31 29.77 1008 10 16 N/A
6:35 pm 18:35 Cloudy 58 14.2 48 8.9 71 71 ENE 21 33 29.77 1008 10 16 N/A
6:55 pm 18:55 Cloudy 57 13.7 49 9.2 74 74 ENE 21 33 29.83 1010 10 16 N/A
7:15 pm 19:15 Cloudy 56 13.6 49 9.7 77 77 ENE 23 37 29.83 1010 10 16 N/A
7:35 pm 19:35 Cloudy 56 13.6 49 9.7 77 77 NE 18 30 29.80 1009 10 16 N/A
7:55 pm 19:55 Cloudy 56 13.5 49 9.7 78 78 ENE 21 33 29.80 1009 10 16 N/A
8:15 pm 20:15 Cloudy 56 13.1 50 9.8 81 81 ENE 17 28 29.80 1009 10 16 N/A
8:35 pm 20:35 Cloudy 55 13 50 10.2 83 83 NE 16 26 29.80 1009 10 16 N/A
8:55 pm 20:55 Cloudy 55 13 50 10.2 83 83 NE 14 22 29.80 1009 10 16 N/A
9:15 pm 21:15 Cloudy 55 12.7 49 9.6 82 82 NE 13 20 29.83 1010 10 16 N/A
9:35 pm 21:35 Cloudy 55 12.7 49 9.5 81 81 NE 10 17 29.83 1010 10 16 N/A
9:55 pm 21:55 Cloudy 55 12.5 49 9.2 80 80 NE 14 22 29.83 1010 10 16 N/A
10:15 pm 22:15 Cloudy 54 12.2 49 9.5 84 84 NE 15 24 29.85 1011 10 16 N/A
10:35 pm 22:35 Cloudy 54 12 49 9.3 84 84 NE 9 15 29.85 1011 10 16 N/A
10:55 pm 22:55 Cloudy 54 12 49 9.5 85 85 ENE 12 19 29.85 1011 10 16 N/A
11:15 pm 23:15 Cloudy 54 12 49 9.6 85 85 NE 8 13 29.88 1012 10 16 N/A
11:35 pm 23:35 Cloudy 54 12 50 9.8 87 87 NE 9 15 29.88 1012 10 16 N/A
11:55 pm 23:55 Cloudy 54 12 49 9.7 86 86 NE 9 15 29.88 1012 10 16 N/A

Powered by AerisWeather